Back to catalog

STARLINK-37174

AliveCommunicationsSSO
NORAD 68767·PAYLOAD·🇺🇸 United States

Launched Apr 19, 2026 from Vandenberg Space Force Base

Loading…

Next Passes (next 24 hours)

TLE

FreshSource: CelesTrak SupGP

Epoch: Sep 14, 2026, 23:08 UTC

1 68767C 26086B   26257.96437500  .00030639  00000+0  95120-3 0  2579
2 68767  97.2846 293.4096 0001085  88.9911 229.4670 15.33420599    17

Track STARLINK-37174 in real time with AllMySat

Download on the App Store